Airfield :
LOGIN :

Register | Disclaimer

   EN    FR    IT 

 










Legend :    VFR   Marginal VFR   IFR   Intensive IFR   Very Intensive IFR
Visi :
Ceiling :
>= 8 km
>= 3000ft
5 to 8 km
1000 to 3000 ft
1500m to 5 km
500 to 1000 ft
800 to 1500m
200 to 500 ft
< 800m
< 200 ft
Symbols :   Thunderstorms  Fog  Heavy snow  Heavy precipitations  Wind > 20 kt
SIGMETs :     Misc.  Thunderstorms  Icing  Turbulence  Mountain Waves  Volcanic Ashes






- Airport Elevation : 336 ft
- IATA code : GCI


EGJB - Guernsey

CURRENT METAR :
  • 011250Z 10007KT 9999 VCSH FEW017 BKN046 10/07 Q1027

EXPIRED METARs :
  • 011220Z 07007KT 9999 -SHRA FEW017 BKN044 10/07 Q1027
  • 011150Z 02004KT 350V060 9999 VCSH FEW017 BKN045 10/08 Q1027
  • 011120Z 33006KT 9999 -SHRA BKN017 BKN038 09/07 Q1027
  • 011050Z 34006KT 9999 VCSH SCT016 BKN038 09/07 Q1028
  • 011020Z 33006KT 9999 FEW015 BKN048 09/06 Q1028

TAF TAF EGJB
Valid from the 01 at 12:00 until the 01 at 21:00 UTC


011105Z 0112/0121 07008KT 9999 FEW010 SCT020
PROB30
TEMPO 0112/0121 8000 -SHRA BKN012
ATIS : +44 1481 238 957



MET'MAP, your aeronautical weather chart ! - Copyright ORBIFLY December 2007 - Disclaimer

ORBIFLY MET'MAP TEAM :

Programming & Development : Alexandra Zaïnal
Original concept : Baudouin d'Aumeries
Technical & hardware support : Manuel Goepfert
Assistance : Marc-Olivier Méhu




SOURCES & CREDITS :

   NOAA